Location: ???
(35.5616°N, 139.7977°E)
Time: 19:28:09
(UTC+00:00)

SL-16 R/B - Pass Details

Date: 17 November 2025
Orbit: 840 x 848 km, 71.0° (Epoch: 08 December)

Event Time Altitude Azimuth Distance (km) Brightness Sun altitude
Exits shadow 19:24:49 53° 290° (WNW) 1,034 2.2 -23.2°
Maximum altitude 19:24:56 53° 294° (WNW) 1,033 2.2 -23.1°
Drops below altitude 10° 19:30:29 10° 12° (NNE) 2,476 4.7 -22.0°
Sets 19:33:01 0° 17° (NNE) 3,415 5.5 -21.5°
